Location: Antioch Baptist Church
(32.7160°N, 96.7483°W)
Time: 07:08:08
(UTC+00:00)

Cosmos 1437 Rocket - Pass Details

Date: 05 December 2023
Orbit: 482 x 539 km, 81.2° (Epoch: 04 March)

Event Time Altitude Azimuth Distance (km) Brightness Sun altitude
Rises 12:35:15 0° 202° (SSW) 2,575 6.2 -8.4°
Reaches altitude 10° 12:37:28 10° 210° (SSW) 1,687 5.2 -7.9°
Maximum altitude 12:40:56 39° 280° (W) 746 3.0 -7.3°
Drops below altitude 10° 12:44:24 10° 351° (N) 1,674 5.0 -6.6°
Sets 12:46:36 0° 359° (N) 2,554 6.0 -6.2°
